Hot Springs, VA

2:59 AM EDT on October 18, 2017 (GMT -0400)
Ingalls

Weather History for KHSP - March, 2014

Change the Weather History Date:

Monday, March 17, 2014

  Actual Average Record
Temperature  
Mean Temperature 19 °F -  
Max Temperature 21 °F 42 °F 64 °F (2012)
Min Temperature 17 °F 26 °F 17 °F (2014)
Degree Days  
Heating Degree Days 46    
Moisture  
Dew Point 18 °F    
Average Humidity 96    
Maximum Humidity 100    
Minimum Humidity 93    
Precipitation  
Precipitation 0.00 in - - ()
Sea Level Pressure  
Sea Level Pressure 29.82 in    
Wind  
Wind Speed 9 mph (East)    
Max Wind Speed 15 mph    
Max Gust Speed 23 mph    
Averages and records for this station are not official NWS values.
T = Trace of Precipitation, MM = Missing Value Source: NWS Daily Summary

Daily Weather History Graph

Daily Weather History Graph

Search for Another Location

Airport or City:

Trip Planner

Search our weather history database for the weather conditions in past years. The results will help you decide how hot, cold, wet, or windy it might be!

Date:

Astronomy

Mar. 17, 2014 Rise Set
Actual Time 7:27 AM EDT 7:28 PM EDT
Civil Twilight 7:01 AM EDT 7:54 PM EDT
Nautical Twilight 6:30 AM EDT 8:25 PM EDT
Astronomical Twilight 5:59 AM EDT 8:56 PM EDT
Moon 8:41 PM EDT (3/17) 7:43 AM EDT (3/17)
Length of Visible Light 12h 53m
Length of Day
12h 00m
Full, 99% of the Moon is Illuminated
Mar 17
Full
Mar 23
Last Quarter
Mar 30
New
Apr 7
First Quarter
Apr 15
Full

Hourly Weather History & Observations

Time (EDT) Temp. Windchill Dew Point Humidity Pressure Visibility Wind Dir Wind Speed Gust Speed Precip Events Conditions
12:15 AM 21.2 °F 9.5 °F 21.2 °F 100% 29.83 in 0.2 mi East 11.5 mph 17.3 mph N/A Snow Heavy Snow
12:35 AM 21.2 °F 8.9 °F 19.4 °F 93% 29.82 in 0.2 mi East 12.7 mph 18.4 mph N/A Snow Heavy Snow
12:55 AM 19.4 °F 6.6 °F 19.4 °F 100% 29.82 in 0.2 mi East 12.7 mph 20.7 mph N/A Snow Heavy Snow
1:15 AM 19.4 °F 6.0 °F 19.4 °F 100% 29.81 in 0.2 mi East 13.8 mph 23.0 mph N/A Snow Heavy Snow
1:35 AM 19.4 °F 7.9 °F 19.4 °F 100% 29.82 in 0.2 mi East 10.4 mph 20.7 mph N/A Snow Heavy Snow
1:55 AM 19.4 °F 6.6 °F 19.4 °F 100% 29.82 in 0.2 mi East 12.7 mph 18.4 mph N/A Snow Heavy Snow
2:15 AM 19.4 °F 6.0 °F 19.4 °F 100% 29.81 in 0.2 mi East 13.8 mph 17.3 mph N/A Snow Heavy Snow
2:30 AM 19.4 °F 7.9 °F 19.4 °F 100% 29.82 in 0.2 mi East 10.4 mph 17.3 mph N/A Snow Heavy Snow
2:55 AM 19.4 °F 5.5 °F 17.6 °F 93% 29.80 in 0.2 mi East 15.0 mph 18.4 mph N/A Snow Heavy Snow
3:15 AM 19.4 °F 5.5 °F 17.6 °F 93% 29.80 in 0.2 mi East 15.0 mph 20.7 mph N/A Snow Heavy Snow
3:35 AM 19.4 °F 7.2 °F 17.6 °F 93% 29.80 in 0.2 mi East 11.5 mph - N/A Snow Heavy Snow
3:55 AM 17.6 °F 3.7 °F 17.6 °F 100% 29.79 in 0.2 mi East 13.8 mph 17.3 mph N/A Snow Heavy Snow
4:15 AM 17.6 °F 3.2 °F 17.6 °F 100% 29.79 in 0.2 mi East 15.0 mph 19.6 mph N/A Snow Light Snow
4:35 AM 17.6 °F 5.0 °F 17.6 °F 100% 29.77 in 0.2 mi East 11.5 mph - N/A Snow Heavy Snow
4:55 AM 17.6 °F 5.0 °F 17.6 °F 100% 29.77 in 0.2 mi East 11.5 mph - N/A Snow Heavy Snow
5:15 AM 17.6 °F 5.7 °F 17.6 °F 100% 29.76 in 0.2 mi East 10.4 mph - N/A Snow Light Snow
5:35 AM 17.6 °F 6.4 °F 15.8 °F 93% 29.76 in 0.2 mi East 9.2 mph - N/A Snow Heavy Snow
5:55 AM 17.6 °F 7.3 °F 15.8 °F 93% 29.77 in 0.2 mi East 8.1 mph - N/A Snow Heavy Snow
6:15 AM 17.6 °F 5.7 °F 15.8 °F 93% 29.76 in 1.0 mi East 10.4 mph - N/A Snow Light Snow
6:35 AM 17.6 °F 7.3 °F 15.8 °F 93% 29.77 in 0.5 mi East 8.1 mph - N/A Snow Snow
6:55 AM 17.6 °F 6.4 °F 15.8 °F 93% 29.77 in 0.8 mi East 9.2 mph - N/A Snow Light Snow
7:15 AM 17.6 °F 6.4 °F 15.8 °F 93% 29.78 in 0.8 mi East 9.2 mph - N/A Snow Snow
7:35 AM 17.6 °F 6.4 °F 15.8 °F 93% 29.77 in 0.5 mi East 9.2 mph - N/A Snow Light Snow
7:55 AM 17.6 °F 7.3 °F 15.8 °F 93% 29.80 in 0.2 mi East 8.1 mph - N/A Snow Snow
8:15 AM 17.6 °F 6.4 °F 15.8 °F 93% 29.79 in 0.2 mi East 9.2 mph - N/A Snow Snow
8:35 AM 17.6 °F 7.3 °F 15.8 °F 93% 29.79 in 0.2 mi East 8.1 mph - N/A Snow Snow
8:50 AM 17.6 °F 5.7 °F 15.8 °F 93% 29.81 in 0.2 mi East 10.4 mph - N/A Snow Snow
9:15 AM 17.6 °F 7.3 °F 15.8 °F 93% 29.81 in 0.2 mi East 8.1 mph - N/A Snow Snow
9:35 AM 17.6 °F 5.7 °F 15.8 °F 93% 29.82 in 0.2 mi East 10.4 mph - N/A Snow Light Snow
9:55 AM 17.6 °F 6.4 °F 15.8 °F 93% 29.78 in 0.2 mi East 9.2 mph - N/A Snow Light Snow
10:15 AM 17.6 °F 6.4 °F 17.6 °F 100% 29.80 in 0.2 mi East 9.2 mph - N/A Snow Snow
10:35 AM 17.6 °F 7.3 °F 17.6 °F 100% 29.80 in 1.5 mi East 8.1 mph - N/A Snow Light Snow
10:55 AM 17.6 °F 9.3 °F 17.6 °F 100% 29.83 in 1.0 mi East 5.8 mph - N/A Snow Light Snow
11:15 AM 17.6 °F 8.2 °F 17.6 °F 100% 29.84 in 1.2 mi ENE 6.9 mph - N/A Snow Light Snow
11:35 AM 17.6 °F 8.2 °F 17.6 °F 100% 29.82 in 2.0 mi East 6.9 mph - N/A Snow Light Snow
11:55 AM 19.4 °F 10.4 °F 17.6 °F 93% 29.83 in 0.5 mi East 6.9 mph - N/A Snow Light Snow
12:15 PM 19.4 °F 10.4 °F 17.6 °F 93% 29.83 in 0.2 mi East 6.9 mph - N/A Snow Light Snow
12:35 PM 19.4 °F 10.4 °F 19.4 °F 100% 29.84 in 0.8 mi East 6.9 mph - N/A Snow Light Snow
12:55 PM 19.4 °F 10.4 °F 17.6 °F 93% 29.83 in 0.8 mi East 6.9 mph - N/A Snow Light Snow
1:15 PM 19.4 °F 10.4 °F 19.4 °F 100% 29.82 in 1.0 mi East 6.9 mph - N/A Snow Light Snow
1:35 PM 19.4 °F 8.6 °F 19.4 °F 100% 29.81 in 0.2 mi East 9.2 mph - N/A Snow Light Snow
1:55 PM 19.4 °F 8.6 °F 19.4 °F 100% 29.80 in 0.2 mi East 9.2 mph - N/A Fog Light Freezing Fog
2:10 PM 19.4 °F 10.4 °F 19.4 °F 100% 29.80 in 0.2 mi East 6.9 mph - N/A Fog Light Freezing Fog
2:35 PM 21.2 °F 13.6 °F 19.4 °F 93% 29.82 in 0.2 mi East 5.8 mph - N/A Fog Light Freezing Fog
2:55 PM 19.4 °F 12.8 °F 19.4 °F 100% 29.81 in 0.2 mi East 4.6 mph - N/A Fog Light Freezing Fog
3:15 PM 19.4 °F 11.5 °F 19.4 °F 100% 29.81 in 0.2 mi ENE 5.8 mph - N/A Fog Light Freezing Fog
3:35 PM 21.2 °F 12.6 °F 19.4 °F 93% 29.82 in 0.2 mi East 6.9 mph - N/A Fog Light Freezing Fog
3:55 PM 21.2 °F 13.6 °F 19.4 °F 93% 29.81 in 0.2 mi ENE 5.8 mph - N/A Fog Light Freezing Fog
4:15 PM 21.2 °F 14.9 °F 19.4 °F 93% 29.81 in 0.2 mi East 4.6 mph - N/A Fog Light Freezing Fog
4:35 PM 21.2 °F 13.6 °F 19.4 °F 93% 29.82 in 0.2 mi East 5.8 mph - N/A Fog Light Freezing Fog
4:55 PM 21.2 °F 13.6 °F 19.4 °F 93% 29.81 in 0.2 mi East 5.8 mph - N/A Fog Light Freezing Fog
5:15 PM 21.2 °F 14.9 °F 19.4 °F 93% 29.81 in 0.2 mi East 4.6 mph - N/A Fog Light Freezing Fog
5:35 PM 21.2 °F 14.9 °F 19.4 °F 93% 29.79 in 0.2 mi East 4.6 mph - N/A Fog Light Freezing Fog
5:55 PM 19.4 °F 12.8 °F 19.4 °F 100% 29.81 in 0.2 mi East 4.6 mph - N/A Snow Light Snow
6:15 PM 19.4 °F 11.5 °F 19.4 °F 100% 29.83 in 0.2 mi East 5.8 mph - N/A Snow Snow
6:35 PM 19.4 °F 11.5 °F 19.4 °F 100% 29.81 in 0.2 mi East 5.8 mph - N/A Snow Light Snow
6:55 PM 19.4 °F 12.8 °F 19.4 °F 100% 29.83 in 0.2 mi East 4.6 mph - N/A Snow Light Snow
7:15 PM 19.4 °F 14.3 °F 19.4 °F 100% 29.84 in 0.2 mi East 3.5 mph - N/A Snow Light Snow
7:35 PM 19.4 °F 11.5 °F 19.4 °F 100% 29.83 in 0.2 mi East 5.8 mph - N/A Snow Light Snow
7:55 PM 19.4 °F 14.3 °F 17.6 °F 93% 29.84 in 0.2 mi East 3.5 mph - N/A Snow Light Snow
8:15 PM 19.4 °F 12.8 °F 17.6 °F 93% 29.84 in 0.2 mi East 4.6 mph - N/A Snow Light Snow
8:35 PM 19.4 °F 12.8 °F 17.6 °F 93% 29.84 in 0.2 mi East 4.6 mph - N/A Snow Light Snow
8:55 PM 19.4 °F 12.8 °F 17.6 °F 93% 29.84 in 0.2 mi East 4.6 mph - N/A Snow Light Snow
9:15 PM 19.4 °F 12.8 °F 17.6 °F 93% 29.85 in 0.2 mi East 4.6 mph - N/A Snow Light Snow
9:35 PM 19.4 °F - 17.6 °F 93% 29.87 in 0.2 mi Calm Calm - N/A Snow Light Snow
9:55 PM 19.4 °F 14.3 °F 17.6 °F 93% 29.87 in 0.2 mi East 3.5 mph - N/A Snow Light Snow
10:15 PM 19.4 °F 14.3 °F 17.6 °F 93% 29.87 in 0.2 mi East 3.5 mph - N/A Snow Snow
10:35 PM 19.4 °F 14.3 °F 17.6 °F 93% 29.89 in 0.2 mi East 3.5 mph - N/A Snow Light Snow
10:55 PM 19.4 °F 14.3 °F 17.6 °F 93% 29.88 in 0.2 mi East 3.5 mph - N/A Snow Light Snow
11:15 PM 19.4 °F 14.3 °F 19.4 °F 100% 29.88 in 0.2 mi East 3.5 mph - N/A Snow Light Snow
11:35 PM 19.4 °F 14.3 °F 19.4 °F 100% 29.89 in 0.2 mi East 3.5 mph - N/A Snow Light Snow
11:55 PM 19.4 °F 14.3 °F 19.4 °F 100% 29.90 in 0.2 mi ESE 3.5 mph - N/A Snow Light Snow